Regional Weather Roundup
Issued by NWS Northern Indiana

Home | Current Version | Previous Version | Graphics & Text | Print | Product List | Glossary On
Versions: 1 2 3 4 5 6 7 8 9 10 11 12 13 14 15 16 17 18 19 20 21 22 23 24 25 26 27 28 29 30 31 32 33 34 35 36 37 38 39 40 41 42 43 44 45 46 47 48 49 50
000
ASUS43 KIWX 030210
RWRIWX

KIWX WEATHER ROUNDUP
NATIONAL WEATHER SERVICE NORTHERN INDIANA
1000 PM EDT WED SEP 02 2015

NOTE: "FAIR" INDICATES FEW OR NO CLOUDS BELOW 12,000 FEET WITH NO
SIGNIFICANT WEATHER AND/OR OBSTRUCTIONS TO VISIBILITY.

* THESE STATIONS ARE NOT UNDER NWS QUALITY CONTROL. THEY ALSO MAY NOT
  REPORT WEATHER SUCH AS PRECIPITATION OR FOG.

INZ001>027-030300-
NORTHERN INDIANA

CITY           SKY/WX    TMP DP  RH WIND       PRES   REMARKS
GARY*          MOCLDY    75  70  83 CALM      29.97S
VALPARAISO     PTCLDY    77  70  79 CALM      30.00R
MICHIGAN CITY* PTCLDY    72  70  94 CALM      29.99R
LAPORTE*       PTCLDY    75  75 100 CALM      30.00S
KNOX*          PTCLDY    72  72 100 CALM      29.99R
SOUTH BEND     MOCLDY    78  70  76 SW6       30.01R
GOSHEN         CLOUDY    75  70  84 S3        30.01R
MONTICELLO*    MOCLDY    76  72  87 CALM      30.00R
LOGANSPORT*    PTCLDY    72  64  78 CALM      30.02R
ROCHESTER*     MOCLDY    77  72  83 CALM      30.02R
WARSAW*        CLOUDY    73  70  88 CALM      30.02R
ANGOLA*        CLEAR     73  72  94 CALM      30.02S
FORT WAYNE     MOCLDY    76  69  79 S3        30.03R
HUNTINGTON*    PTCLDY    74  67  78 CALM      30.02R
PERU/GRISSOM   MOCLDY    75  69  81 SW6       30.01R
MARION*        PTCLDY    73  62  68 SW5       30.04R

$$
INZ028>050-030300-
CENTRAL INDIANA

CITY           SKY/WX    TMP DP  RH WIND       PRES   REMARKS
LAFAYETTE      MOCLDY    76  68  76 W3        30.00R
KOKOMO*        MOCLDY    75  57  53 SW3       30.03R
MUNCIE*        CLEAR     75  66  73 SW3       30.04R
INDIANAPOLIS   PTCLDY    78  68  71 SW6       30.03R

$$
MIZ043>046-050>051-056>058-064>065-071>073-077>080-030300-
SOUTHWEST LOWER MICHIGAN

CITY           SKY/WX    TMP DP  RH WIND       PRES   REMARKS
BATTLE CREEK   PTCLDY    76  70  82 CALM      30.02R
BENTON HARBOR  PTCLDY    76  69  79 CALM      29.98R
COLDWATER*     CLEAR     71  70  96 CALM      30.01S
HILLSDALE*     PTCLDY    72  71  99 CALM      30.03S
HOLLAND        PTCLDY    74  70  87 S3        29.98S
GRAND RAPIDS   CLOUDY    75  70  84 SE3       29.99R
KALAMAZOO      PTCLDY    73  68  84 CALM      30.00R
STURGIS*       MOCLDY    73  72  94 CALM      30.01R
THREE RIVERS*  FAIR      76  72  87 CALM      30.01R

$$
OHZ001>008-015>018-024>025-030300-
NORTHWEST OHIO

CITY           SKY/WX    TMP DP  RH WIND       PRES   REMARKS
WAUSEON*       MOCLDY    75  72  88 W3        30.01S
DEFIANCE       CLEAR     75  68  78 CALM      30.01R
FINDLAY        PTCLDY    75  70  84 S6        30.01R
TOLEDO EXPRESS MOCLDY    74  72  93 CALM      30.00R
TOLEDO METCALF CLEAR     75  70  84 CALM      30.00R
LIMA           PTCLDY    74  68  81 CALM      30.03R

$$
AND FOR LAKE MICHIGAN COASTAL AND OPEN LAKE BUOY OBSERVATIONS

STATION/POSITION TEMP    WIND        PRES    VSBY  WAVE
                 AIR SEA DIR/SP/G                  HT/PER
                 (F)     (DEG/KT/KT) (MB)    (MI)  (FT/S)
CALUMET HARBOR           210/  3/  4   N/A
MICHIGAN CITY     81     130/  3/  4   N/A
BURNS HARBOR      83     210/  9/ 12 1015.2R
SAINT JOSEPH      79     140/  3/  4 1015.6F
SOUTH LAKE BUOY   74 72  160/ 10/ 10 1013.7R         0
4 MI NW BRIDGMAN  77 75  230/  6/  6   N/A           1/ 3
MICHIGAN CITY     78 75  180/  4/  6   N/A           1

$$
&&


USA.gov is the U.S. government's official web portal to all federal, state and local government web resources and services.